Flora, IL

2:40 AM CDT on September 24, 2017 (GMT -0500)
Flora Municipal

Weather History for KFOA - January, 2013

Change the Weather History Date:

Monday, January 7, 2013

  Actual Average (KSLO) Record (KSLO)
Temperature  
Mean Temperature 26 °F -  
Max Temperature 36 °F 37 °F 68 °F (2008)
Min Temperature 16 °F 19 °F -11 °F (2014)
Degree Days  
Heating Degree Days 39    
Moisture  
Dew Point 23 °F    
Average Humidity 89    
Maximum Humidity 100    
Minimum Humidity 70    
Precipitation  
Precipitation 0.00 in - - ()
Sea Level Pressure  
Sea Level Pressure 30.35 in    
Wind  
Wind Speed 4 mph (South)    
Max Wind Speed 16 mph    
Max Gust Speed -    
Visibility 7 miles    
Events      
Averages and records for this station are not official NWS values.
T = Trace of Precipitation, MM = Missing Value Source: NWS Daily Summary

Daily Weather History Graph

Daily Weather History Graph

Search for Another Location

Airport or City:

Trip Planner

Search our weather history database for the weather conditions in past years. The results will help you decide how hot, cold, wet, or windy it might be!

Date:

Astronomy

Jan. 07, 2013 Rise Set
Actual Time 7:11 AM CST 4:48 PM CST
Civil Twilight 6:42 AM CST 5:18 PM CST
Nautical Twilight 6:09 AM CST 5:51 PM CST
Astronomical Twilight 5:37 AM CST 6:23 PM CST
Moon 2:36 AM CST (1/7) 12:59 PM CST (1/7)
Length of Visible Light 10h 35m
Length of Day
9h 36m
Waning Crescent, 22% of the Moon is Illuminated
Jan 7
Waning Crescent
Jan 11
New
Jan 18
First Quarter
Jan 26
Full
Feb 3
Last Quarter

Hourly Weather History & Observations

Time (CST) Temp. Windchill Dew Point Humidity Pressure Visibility Wind Dir Wind Speed Gust Speed Precip Events Conditions
12:15 AM 21.6 °F - 21.2 °F 99% 30.41 in 5.0 mi Calm Calm - N/A   Clear
12:35 AM 20.3 °F - 19.6 °F 97% 30.41 in 4.0 mi Calm Calm - N/A   Clear
12:55 AM 19.0 °F 13.9 °F 18.3 °F 97% 30.42 in 4.0 mi SSW 3.5 mph - N/A   Clear
1:15 AM 18.9 °F 13.7 °F 18.3 °F 98% 30.42 in 4.0 mi SW 3.5 mph - N/A   Clear
1:35 AM 19.0 °F - 18.5 °F 98% 30.42 in 5.0 mi Calm Calm - N/A   Clear
1:55 AM 19.0 °F - 18.3 °F 97% 30.42 in 4.0 mi Calm Calm - N/A   Clear
2:15 AM 19.0 °F - 18.5 °F 98% 30.42 in 5.0 mi Calm Calm - N/A   Clear
2:35 AM 19.6 °F - 18.9 °F 97% 30.42 in 5.0 mi Calm Calm - N/A   Clear
2:55 AM 18.9 °F - 18.1 °F 97% 30.43 in 4.0 mi Calm Calm - N/A   Clear
3:15 AM 18.9 °F - 18.3 °F 98% 30.43 in 4.0 mi Calm Calm - N/A   Clear
3:35 AM 18.9 °F - 18.3 °F 98% 30.43 in 4.0 mi Calm Calm - N/A   Clear
3:55 AM 18.7 °F - 18.1 °F 98% 30.43 in 4.0 mi Calm Calm - N/A   Clear
4:15 AM 18.0 °F - 17.2 °F 97% 30.43 in 3.0 mi Calm Calm - N/A   Clear
4:35 AM 18.7 °F - 18.3 °F 98% 30.43 in 4.0 mi Calm Calm - N/A   Clear
4:55 AM 18.5 °F - 18.1 °F 98% 30.43 in 4.0 mi Calm Calm - N/A   Clear
5:15 AM 19.0 °F - 18.7 °F 98% 30.42 in 3.0 mi Calm Calm - N/A   Clear
5:35 AM 19.0 °F 13.9 °F 18.5 °F 98% 30.42 in 4.0 mi SE 3.5 mph - N/A   Clear
5:55 AM 17.2 °F - 16.5 °F 97% 30.43 in 4.0 mi Calm Calm - N/A   Clear
6:15 AM 16.7 °F - 16.2 °F 98% 30.44 in 4.0 mi Calm Calm - N/A   Clear
6:35 AM 18.5 °F - 18.0 °F 98% 30.44 in 3.0 mi Calm Calm - N/A   Clear
6:55 AM 17.6 °F - 16.9 °F 97% 30.44 in 4.0 mi Calm Calm - N/A   Clear
7:35 AM 18.1 °F - 17.4 °F 97% 30.44 in 2.5 mi Calm Calm - N/A   Clear
7:55 AM 19.2 °F - 18.5 °F 97% 30.45 in 2.5 mi Calm Calm - N/A   Clear
8:15 AM 21.6 °F 15.3 °F 21.2 °F 99% 30.45 in 3.0 mi South 4.6 mph - N/A   Clear
8:35 AM 23.4 °F 16.2 °F 23.0 °F 99% 30.45 in 3.0 mi South 5.8 mph - N/A   Clear
8:55 AM 24.8 °F 17.9 °F 24.4 °F 99% 30.46 in 4.0 mi South 5.8 mph - N/A   Clear
9:15 AM 25.7 °F 16.4 °F 25.7 °F 100% 30.46 in 5.0 mi South 9.2 mph - N/A   Clear
9:35 AM 26.6 °F 17.5 °F 26.6 °F 100% 30.46 in 5.0 mi SSE 9.2 mph - N/A   Clear
9:55 AM 27.9 °F 16.8 °F 27.3 °F 98% 30.45 in 7.0 mi SSE 13.8 mph - N/A   Clear
10:15 AM 29.8 °F 19.8 °F 26.6 °F 88% 30.45 in 7.0 mi South 12.7 mph - N/A   Clear
10:55 AM 31.6 °F 21.2 °F 25.9 °F 79% 30.42 in 10.0 mi SSE 15.0 mph - N/A   Unknown
11:15 AM 32.0 °F 22.1 °F 25.7 °F 78% 30.41 in 10.0 mi South 13.8 mph - N/A   Unknown
11:35 AM 32.5 °F 24.2 °F 26.4 °F 78% 30.40 in 10.0 mi South 10.4 mph - N/A   Unknown
11:55 AM 33.4 °F 24.3 °F 27.0 °F 77% 30.38 in 10.0 mi South 12.7 mph - N/A   Unknown
12:15 PM 33.4 °F 23.9 °F 26.4 °F 75% 30.36 in 10.0 mi SSE 13.8 mph - N/A   Unknown
12:35 PM 34.2 °F 24.4 °F 27.0 °F 75% 30.35 in 10.0 mi South 15.0 mph - N/A   Unknown
12:55 PM 34.9 °F 24.9 °F 27.1 °F 73% 30.34 in 10.0 mi South 16.1 mph - N/A   Unknown
1:15 PM 34.9 °F 25.3 °F 26.6 °F 72% 30.33 in 10.0 mi South 15.0 mph - N/A   Unknown
1:35 PM 35.2 °F 27.1 °F 26.8 °F 71% 30.32 in 10.0 mi South 11.5 mph - N/A   Clear
1:55 PM 35.4 °F 27.3 °F 26.6 °F 70% 30.32 in 10.0 mi South 11.5 mph - N/A   Clear
2:15 PM 35.6 °F 28.0 °F 27.0 °F 71% 30.31 in 10.0 mi South 10.4 mph - N/A   Clear
2:35 PM 35.8 °F 28.8 °F 28.0 °F 73% 30.30 in 10.0 mi South 9.2 mph - N/A   Clear
2:55 PM 36.0 °F 28.0 °F 27.5 °F 71% 30.31 in 10.0 mi South 11.5 mph - N/A   Clear
3:15 PM 35.6 °F 29.2 °F 27.1 °F 71% 30.30 in 10.0 mi South 8.1 mph - N/A   Clear
3:35 PM 35.2 °F 28.1 °F 27.9 °F 74% 30.29 in 10.0 mi SSE 9.2 mph - N/A   Clear
3:55 PM 34.7 °F 28.1 °F 27.5 °F 75% 30.29 in 10.0 mi SSE 8.1 mph - N/A   Clear
4:15 PM 33.8 °F 27.0 °F 27.9 °F 79% 30.28 in 10.0 mi SSE 8.1 mph - N/A   Clear
4:35 PM 32.4 °F 25.3 °F 27.5 °F 82% 30.28 in 10.0 mi SSE 8.1 mph - N/A   Clear
4:55 PM 32.0 °F 25.6 °F 27.0 °F 82% 30.27 in 10.0 mi SSE 6.9 mph - N/A   Clear
5:15 PM 30.4 °F 24.5 °F 26.6 °F 86% 30.27 in 10.0 mi South 5.8 mph - N/A   Clear
5:35 PM 30.6 °F 27.1 °F 25.9 °F 83% 30.28 in 10.0 mi South 3.5 mph - N/A   Clear
5:55 PM 30.9 °F - 26.2 °F 83% 30.27 in 10.0 mi Calm Calm - N/A   Clear
6:15 PM 29.8 °F - 25.9 °F 85% 30.27 in 10.0 mi Calm Calm - N/A   Clear
6:35 PM 28.4 °F 20.4 °F 25.3 °F 88% 30.26 in 7.0 mi SSE 8.1 mph - N/A   Clear
6:55 PM 28.8 °F 20.9 °F 25.9 °F 89% 30.25 in 7.0 mi SSE 8.1 mph - N/A   Clear
7:15 PM 29.1 °F 22.1 °F 25.9 °F 88% 30.24 in 7.0 mi SSE 6.9 mph - N/A   Clear
7:35 PM 29.5 °F - 26.2 °F 88% 30.25 in 7.0 mi Calm Calm - N/A   Clear
7:55 PM 28.9 °F 23.9 °F 25.3 °F 86% 30.25 in 7.0 mi SSW 4.6 mph - N/A   Clear
8:15 PM 28.2 °F 22.0 °F 25.0 °F 88% 30.25 in 7.0 mi South 5.8 mph - N/A   Clear
8:35 PM 28.6 °F 23.5 °F 25.9 °F 90% 30.24 in 7.0 mi South 4.6 mph - N/A   Clear
8:55 PM 27.3 °F 20.9 °F 24.8 °F 90% 30.24 in 7.0 mi South 5.8 mph - N/A   Clear
9:15 PM 27.3 °F 20.9 °F 24.8 °F 90% 30.23 in 7.0 mi South 5.8 mph - N/A   Clear
9:35 PM 27.3 °F 22.0 °F 25.0 °F 91% 30.23 in 7.0 mi SSE 4.6 mph - N/A   Clear
9:55 PM 25.5 °F 19.9 °F 23.5 °F 92% 30.22 in 5.0 mi SSE 4.6 mph - N/A   Clear
10:15 PM 24.6 °F 20.3 °F 23.5 °F 96% 30.23 in 5.0 mi South 3.5 mph - N/A   Clear
10:35 PM 25.5 °F 18.7 °F 24.3 °F 95% 30.23 in 5.0 mi SSW 5.8 mph - N/A   Clear
10:55 PM 25.3 °F 18.5 °F 24.3 °F 96% 30.22 in 5.0 mi South 5.8 mph - N/A   Clear
11:15 PM 24.8 °F 16.9 °F 23.9 °F 96% 30.23 in 5.0 mi South 6.9 mph - N/A   Clear
11:35 PM 28.0 °F 19.3 °F 25.9 °F 92% 30.22 in 7.0 mi South 9.2 mph - N/A   Clear
11:55 PM 28.2 °F 19.5 °F 25.7 °F 90% 30.21 in 7.0 mi South 9.2 mph - N/A   Clear